This is the latest recevied weather packets stored in our database for station/object K9YK-13. If no packets are shown the sender has not sent any weather packets the latest 1 day(s).
| Time | Temp. | Humidity | Pressure | Rain* | Wind** | Luminosity | Snow |
|---|---|---|---|---|---|---|---|
| 1778001970 | 13.33° C | 69% | 0 hPa | 0 mm | 0 m/s | - | - |
| 1778001670 | 13.33° C | 70% | 0 hPa | 0 mm | 0 m/s | - | - |
| 1778001370 | 13.33° C | 70% | 0 hPa | 0 mm | 0 m/s | - | - |
| 1778001070 | 13.33° C | 75% | 0 hPa | 0 mm | 0 m/s | - | - |
| 1778000770 | 13.33° C | 75% | 0 hPa | 0 mm | 0 m/s | - | - |
| 1778000470 | 12.78° C | 75% | 0 hPa | 0 mm | 0 m/s | - | - |
| 1778000170 | 12.78° C | 74% | 0 hPa | 0 mm | 0 m/s | - | - |
| 1777999870 | 12.78° C | 74% | 0 hPa | 0 mm | 0 m/s | - | - |
| 1777999570 | 12.22° C | 74% | 0 hPa | 0 mm | 0 m/s | - | - |
| 1777999270 | 13.33° C | 75% | 0 hPa | 0 mm | 0 m/s | - | - |
| 1777998970 | 13.33° C | 75% | 0 hPa | 0 mm | 0 m/s | - | - |
| 1777998669 | 12.78° C | 77% | 0 hPa | 0 mm | 0 m/s | - | - |
| 1777998369 | 12.78° C | 79% | 0 hPa | 0 mm | 0 m/s | - | - |
| 1777998070 | 12.22° C | 80% | 0 hPa | 0 mm | 0 m/s | - | - |
| 1777997770 | 12.78° C | 80% | 0 hPa | 0 mm | 0 m/s | - | - |
| 1777997470 | 12.22° C | 81% | 0 hPa | 0 mm | 0 m/s | - | - |
| 1777997170 | 12.78° C | 80% | 0 hPa | 0 mm | 0 m/s | - | - |
| 1777996870 | 12.78° C | 81% | 0 hPa | 0 mm | 0 m/s | - | - |
| 1777996570 | 13.33° C | 79% | 0 hPa | 0 mm | 0 m/s | - | - |
| 1777996270 | 12.22° C | 80% | 0 hPa | 0 mm | 0 m/s | - | - |
| 1777995970 | 12.78° C | 78% | 0 hPa | 0 mm | 0 m/s | - | - |
| 1777995670 | 12.22° C | 78% | 0 hPa | 0 mm | 0 m/s | - | - |
| 1777995370 | 12.22° C | 78% | 0 hPa | 0 mm | 0 m/s | - | - |
| 1777995070 | 12.78° C | 77% | 0 hPa | 0 mm | 0 m/s | - | - |
| 1777994773 | 12.22° C | 78% | 0 hPa | 0 mm | 0 m/s | - | - |
* Rain latest hour (hover to see other rain measurements)
** Current wind speed in m/s (hover to see current wind gust speed)